This demonstration page uses our WeatherBlox Daily Observations layout. Learn more.

Left ArrowRight Arrow

34.02893, -84.19858

Hourly Observations for May 7, 2022

Temp ( °F °C ) Dew Point ( °F °C ) Humidity (%) Winds ( mph kmh ) Pressure ( in mb ) Visibility ( mi km ) Precip ( " mm )
12:53 am 00:53 Cloudy 65 18.3 54 12.2 68 68 W 8 13 29.69 1005 10 16 0.00 0.00
1:53 am 01:53 Cloudy 62 16.7 57 13.9 84 84 W 14 22 29.67 1005 9 14 0.00 0.00
2:53 am 02:53 Cloudy 61 16.1 57 13.9 87 87 W 8 13 29.65 1004 10 16 0.00 0.00
3:53 am 03:53 Cloudy 61 16.1 56 13.3 84 84 W 9 15 29.65 1004 10 16 0.00 0.00
4:53 am 04:53 Mostly Clear 60 15.6 54 12.2 80 80 W 8 13 29.65 1004 10 16 0.00 0.00
5:53 am 05:53 Cloudy 60 15.6 51 10.6 72 72 WNW 12 19 29.65 1004 10 16 0.00 0.00
6:45 am 06:45 Cloudy 59 15 51 10.6 75 75 WNW 9 15 29.68 1005 10 16 0.00 0.00
6:53 am 06:53 Cloudy 59 15 51 10.6 75 75 WNW 12 19 29.67 1005 10 16 0.00 0.00
7:53 am 07:53 Mostly Cloudy 58 14.4 51 10.6 78 78 W 10 17 29.69 1005 10 16 0.00 0.00
8:50 am 08:50 Cloudy 61 16 52 11 72 72 WNW 10 17 29.72 1006 10 16 0.00 0.00
8:53 am 08:53 Cloudy 60 15.6 51 10.6 72 72 WNW 10 17 29.70 1006 10 16 0.00 0.00
9:34 am 09:34 Cloudy 61 16.1 51 10.6 70 70 WNW 13 20 29.73 1007 10 16 0.00 0.00
9:48 am 09:48 Cloudy 63 17 52 11 68 68 WNW 14 22 29.73 1007 10 16 0.00 0.00
9:53 am 09:53 Cloudy 62 16.7 52 11.1 70 70 W 14 22 29.71 1006 10 16 0.00 0.00
10:34 am 10:34 Cloudy 62 16.7 52 11.1 70 70 W 17 28 29.74 1007 10 16 0.00 0.00
10:53 am 10:53 Cloudy 60 15.6 51 10.6 72 72 W 10 17 29.73 1007 10 16 0.00 0.00
11:53 am 11:53 Cloudy 62 16.7 52 11.1 70 70 WNW 15 24 29.74 1007 10 16 0.00 0.00
12:21 pm 12:21 Cloudy 63 17.2 51 10.6 65 65 WNW 12 19 29.75 1008 10 16 0.00 0.00
12:31 pm 12:31 Cloudy 63 17.2 51 10.6 65 65 WNW 12 19 29.75 1008 10 16 0.00 0.00
12:53 pm 12:53 Cloudy 66 18.9 52 11.1 61 61 WNW 16 26 29.73 1007 10 16 0.00 0.00
1:53 pm 13:53 Cloudy 67 19.4 53 11.7 61 61 W 15 24 29.73 1007 10 16 0.00 0.00
2:53 pm 14:53 Cloudy 65 18.3 51 10.6 61 61 NW 13 20 29.74 1007 10 16 0.00 0.00
3:53 pm 15:53 Cloudy 66 18.9 52 11.1 61 61 W 13 20 29.73 1007 10 16 0.00 0.00
4:53 pm 16:53 Cloudy 66 18.9 52 11.1 61 61 WNW 10 17 29.72 1007 10 16 0.00 0.00
5:53 pm 17:53 Cloudy 65 18.3 52 11.1 63 63 NW 14 22 29.73 1007 10 16 0.00 0.00
6:53 pm 18:53 Cloudy 64 17.8 53 11.7 68 68 NW 10 17 29.76 1008 10 16 0.00 0.00
7:04 pm 19:04 Cloudy 63 17.2 53 11.7 70 70 WNW 10 17 29.76 1008 10 16 0.00 0.00
7:32 pm 19:32 Cloudy 63 17.2 53 11.7 70 70 NW 9 15 29.76 1008 10 16 0.00 0.00
7:53 pm 19:53 Cloudy 62 16.7 53 11.7 73 73 N 12 19 29.76 1008 10 16 0.00 0.00
8:53 pm 20:53 Cloudy 61 16.1 52 11.1 72 72 NW 12 19 29.78 1009 10 16 0.00 0.00
9:53 pm 21:53 Cloudy 60 15.6 52 11.1 75 75 NW 9 15 29.80 1009 10 16 0.00 0.00
10:09 pm 22:09 Cloudy 60 15.6 53 11.7 78 78 NW 9 15 29.81 1009 10 16 0.00 0.00
10:26 pm 22:26 Cloudy 59 15 52 11.1 78 78 NW 12 19 29.82 1010 10 16 0.00 0.00
10:53 pm 22:53 Cloudy 59 15 52 11.1 78 78 NW 10 17 29.81 1010 10 16 0.00 0.00
11:16 pm 23:16 Cloudy 58 14.4 52 11.1 81 81 NNW 8 13 29.82 1010 10 16 0.00 0.00
11:53 pm 23:53 Mostly Cloudy 58 14.4 52 11.1 81 81 NNW 10 17 29.81 1010 10 16 0.00 0.00

Powered by AerisWeather